Location: Bluff Heights
(33.7692°N, 118.1592°W)
Time: 23:16:20
(UTC+00:00)

Transit 4A - All Passes

Search period start: 28 July 2021 00:00
Search period end: 07 August 2021 00:00
Orbit: 872 x 972 km, 66.8° (Epoch: 28 July)

Date Brightness Start Highest point End Pass type
(mag) Time Alt. Az. Time Alt. Az. Time Alt. Az.
28 Jul - 06:34:40 10° ESE 06:35:49 11° ESE 06:36:59 10° E visible
28 Jul - 08:15:23 10° SSW 08:21:22 85° WNW 08:27:15 10° NNE visible
28 Jul - 10:06:07 10° WNW 10:08:30 12° NW 10:10:53 10° NNW visible
28 Jul - 17:22:07 10° NNW 17:27:49 50° ENE 17:33:36 10° SE daylight
28 Jul - 19:09:29 10° WNW 19:13:44 21° WSW 19:18:03 10° SSW daylight
29 Jul - 06:40:56 10° SSE 06:44:51 18° ESE 06:48:43 10° ENE visible
29 Jul - 08:24:52 10° SW 08:30:40 55° WNW 08:36:25 10° NNE visible
29 Jul - 15:48:06 10° NNE 15:49:55 11° NE 15:51:43 10° ENE daylight
29 Jul - 17:31:15 10° NNW 17:37:10 77° ENE 17:43:10 10° SSE daylight
29 Jul - 19:20:27 10° W 19:22:46 12° WSW 19:25:07 10° SW daylight
30 Jul - 06:48:53 10° SSE 06:53:56 29° ESE 06:58:54 10° NE visible
30 Jul - 08:34:41 10° WSW 08:40:05 36° WNW 08:45:26 10° N visible
30 Jul - 15:55:49 10° N 15:59:36 17° NE 16:03:24 10° E daylight
30 Jul - 17:40:34 10° NNW 17:46:25 70° WSW 17:52:24 10° SSE daylight
31 Jul - 06:57:25 10° S 07:03:04 46° ESE 07:08:39 10° NE visible
31 Jul - 08:44:53 10° WSW 08:49:35 24° NW 08:54:13 10° N visible
31 Jul - 16:04:21 10° N 16:09:10 25° NE 16:14:03 10° ESE daylight
31 Jul - 17:50:04 10° NW 17:55:38 44° WSW 18:01:18 10° S daylight
01 Aug - 07:06:21 10° SSW 07:12:17 73° ESE 07:18:07 10° NNE visible
01 Aug - 08:55:36 10° W 08:59:09 16° NW 09:02:42 10° NNW visible
01 Aug - 16:13:11 10° N 16:18:39 38° ENE 16:24:11 10° SE daylight
01 Aug - 17:59:50 10° NW 18:04:46 28° WSW 18:09:48 10° SSW daylight
02 Aug - 05:33:20 10° SE 05:35:55 13° ESE 05:38:28 10° ENE visible
02 Aug - 07:15:38 10° SSW 07:21:34 73° WNW 07:27:24 10° NNE visible
02 Aug - 09:07:40 10° WNW 09:08:51 11° NW 09:10:02 10° NNW visible
02 Aug - 16:22:13 10° NNW 16:28:02 58° ENE 16:33:58 10° SE daylight
02 Aug - 18:10:05 10° WNW 18:13:51 18° WSW 18:17:40 10° SW daylight
03 Aug - 05:40:35 10° SSE 05:44:58 22° ESE 05:49:17 10° ENE visible
03 Aug - 07:25:13 10° SW 07:30:54 47° WNW 07:36:31 10° NNE visible
03 Aug - 14:47:31 10° NNE 14:50:15 13° NE 14:53:00 10° ENE daylight
03 Aug - 16:31:25 10° NNW 16:37:21 89° ENE 16:43:24 10° SSE daylight
03 Aug - 18:22:43 10° W 18:22:52 10° WSW 18:23:01 10° WSW daylight
04 Aug - 05:48:46 10° S 05:54:03 34° ESE 05:59:17 10° NE visible
04 Aug - 07:35:09 10° WSW 07:40:20 31° NW 07:45:28 10° N visible
04 Aug - 14:55:41 10° N 14:59:54 20° NE 15:04:09 10° E daylight
04 Aug - 16:40:48 10° NW 16:46:35 59° WSW 16:52:31 10° S daylight
05 Aug - 05:57:27 10° S 06:03:13 54° ESE 06:08:55 10° NE visible
05 Aug - 07:45:31 10° W 07:49:51 21° NW 07:54:11 10° N visible
05 Aug - 15:04:21 10° N 15:09:26 29° NE 15:14:36 10° ESE daylight
05 Aug - 16:50:23 10° NW 16:55:46 37° WSW 17:01:17 10° S daylight
06 Aug - 06:06:30 10° SSW 06:12:27 85° ESE 06:18:19 10° NNE visible
06 Aug - 07:56:31 10° WNW 07:59:29 14° NW 08:02:26 10° NNW visible
06 Aug - 15:13:16 10° NNW 15:18:53 44° ENE 15:24:37 10° SE daylight
06 Aug - 17:00:17 10° NW 17:04:54 24° WSW 17:09:35 10° SSW daylight
